Location: Aigremont
(47.7188°N, 3.8925°E)
Time: 15:50:56
(UTC+00:00)

CZ-4C R/B - Pass Details

Date: 18 February 2020
Orbit: 641 x 1361 km, 63.4° (Epoch: 07 April)

Event Time Altitude Azimuth Distance (km) Brightness Sun altitude
Exits shadow 04:02:12 42° 344° (NNW) 1,220 2.9 -28.1°
Drops below altitude 10° 04:07:26 10° 35° (NE) 2,728 5.4 -27.3°
Sets 04:10:25 0° 42° (NE) 3,805 6.4 -26.8°
